Tracking 29511 objects as of 15-Sep-2024
HD Live streaming from Space Station
objects crossing your sky now

ANIK A2 (TELESAT 2)

Track ANIK A2 (TELESAT 2) now!
ANIK A2 (TELESAT 2) is classified as:


NORAD ID: 6437
Int'l Code: 1973-023A
Perigee: 35,893.6 km
Apogee: 35,959.8 km
Inclination: 8.4 °
Period: 1,442.9 minutes
Semi major axis: 42297 km
RCS: 3.1458 m2 (large)
Launch date: April 20, 1973
Source: Canada (CA)
Launch site: AIR FORCE EASTERN TEST RANGE (AFETR)
Your satellite tracking list
Your tracking list is empty




NASA's NSSDC Master Catalog

Two Line Element Set (TLE):
1 06437U 73023A   24258.80692749  .00000077  00000-0  00000-0 0  9995
2 06437   8.4213 301.3487 0007831  69.9931 299.8793  0.99799318 40761
Source of the keplerian elements: AFSPC